Temperature
16 16 16 16 16 16 16 16 16 16 16 16 16 16 16 16 16 16 16 16 16 16 16 15 15 15 15 15 15 16 16 16 16 16 15 15 15 15 15 15 15 15 15
16 16 16 16 16 16 16 16 16 16 16 16 16 16 16 15 15 15 15 15 15 15 15 15 15 15 15 15 15 15 15 15 15 15 15 15 15 15 15 15 15 15 15
16 16 16 16 16 16 16 16 16 16 16 16 16 16 16 15 15 15 15 15 15 15 15 15 15 15 15 15 15 15 15 15 15 15 15 15 15 15 15 15 15 15 15
16 16 16 16 16 16 16 16 15 15 15 15 15 15 15 15 15 15 15 15 15 15 15 15 15 15 15 15 15 15 15 14 15 15 15 15 15 15 14 15 14 15 15
16 16 16 16 16 15 15 15 15 15 15 15 15 15 15 15 15 15 15 15 15 14 14 14 14 14 14 14 14 14 14 14 14 14 14 14 14 14 14 14 14 14 14
16 16 16 15 15 15 15 15 15 15 15 15 15 15 15 15 15 15 15 15 14 14 14 14 14 14 14 14 14 14 14 14 14 14 14 14 14 14 14 14 14 14 14
16 16 15 15 15 15 15 15 15 15 15 15 15 15 15 15 15 15 15 15 14 14 14 14 14 14 14 14 14 14 14 14 14 14 14 14 14 14 14 14 14 14 14
16 15 15 15 15 15 15 15 15 14 15 15 15 15 15 15 15 15 15 14 14 14 14 14 14 14 14 14 14 14 14 14 14 14 13 13 13 13 14 14 14 14 14
16 15 15 15 15 15 15 14 14 14 14 15 15 15 15 15 15 15 14 14 14 14 14 14 13 13 13 13 14 14 14 14 14 13 13 13 13 13 13 13 13 13 13
15 15 15 15 15 15 14 14 14 14 14 14 14 14 15 15 15 14 14 14 14 14 14 13 13 13 13 13 13 13 13 13 13 13 13 13 13 13 13 13 13 13 13
15 15 15 15 15 15 14 14 14 14 14 14 14 14 14 14 15 14 14 14 14 14 14 13 13 13 13 13 13 13 13 13 13 13 13 13 13 13 13 13 13 13 13
15 15 15 15 15 14 14 14 14 14 14 14 14 14 14 14 14 14 14 14 14 14 13 13 13 13 13 13 13 13 13 13 13 13 13 13 13 13 13 13 13 13 13
15 15 15 14 14 14 14 14 14 14 14 14 14 14 14 14 14 14 14 14 14 13 13 13 13 13 13 13 13 12 12 12 13 13 13 13 13 13 13 13 13 13 12
15 14 14 14 14 14 14 14 14 14 13 13 13 13 14 14 14 14 14 13 13 13 13 13 13 13 13 12 12 12 12 12 12 12 12 12 12 12 12 12 12 12 12
14 14 14 14 14 14 14 14 13 13 13 13 13 13 13 13 13 13 13 13 13 13 13 13 12 12 12 12 12 12 12 12 12 12 12 12 12 12 12 12 12 12 12
15 14 14 14 14 14 14 14 13 13 13 13 13 13 13 13 13 13 13 13 13 13 12 12 12 12 12 12 12 12 12 12 12 12 12 12 12 12 12 12 12 12 12
14 14 14 14 14 14 14 13 13 13 13 13 13 13 13 13 13 13 13 13 13 13 12 12 12 12 12 12 11 11 11 11 11 11 11 11 11 11 11 11 11 12 12
14 14 14 14 14 14 13 13 13 13 13 13 12 12 12 12 12 12 12 12 12 12 12 12 12 12 11 11 11 11 11 11 11 11 11 11 11 11 11 11 11 11 11
14 14 14 14 14 13 13 13 13 13 13 13 12 12 12 12 12 12 12 12 12 12 12 12 11 11 11 11 11 11 11 11 11 11 11 11 11 11 11 11 11 11 11
14 13 13 13 13 13 13 13 13 13 13 12 12 12 12 12 12 12 12 12 11 11 11 11 11 11 11 11 11 11 10 10 10 10 10 11 11 11 11 11 11 11 11
13 13 13 13 13 13 13 13 13 13 12 12 12 12 12 12 12 12 12 11 11 11 11 11 11 11 11 10 10 10 10 10 10 10 10 10 10 10 10 10 10 10 10
13 13 13 12 13 12 12 13 13 12 12 12 12 12 12 12 12 12 12 11 11 11 11 11 11 10 10 10 10 10 10 10 10 10 10 10 10 10 10 10 10 10 10
12 12 12 12 12 12 12 12 12 12 12 12 12 12 12 12 12 11 11 11 11 11 11 11 11 11 10 10 10 10 10 10 10 10 10 10 10 10 10 10 10 10 10
12 12 12 12 12 12 12 12 12 12 12 12 11 11 11 11 11 11 11 11 11 11 11 11 11 10 10 10 10 10 10 9 9 9 9 9 9 10 10 10 10 10 10
11 11 11 11 11 11 11 12 11 11 11 11 11 11 11 11 11 11 11 11 11 11 10 10 10 10 10 10 10 10 9 9 9 9 9 9 9 9 9 9 9 9 9
11 11 11 11 11 11 11 11 11 11 11 11 10 11 11 11 11 11 10 10 10 10 10 10 10 10 10 10 10 9 9 9 9 9 9 9 9 8 8 9 9 9 9
Wind_Speed
3 3 3 2 2 3 2 2 3 3 4 5 5 6 5 7 9 9 9 12 12 12 11 11 10 10 10 10 10 10 10 10 10 10 9 9 9 9 9 8 8 8 7
3 3 3 2 2 2 3 2 3 2 2 3 4 5 5 6 7 8 9 10 11 11 10 10 10 9 9 10 10 10 10 10 9 9 9 9 9 9 9 8 7 7 7
4 4 3 3 2 4 5 4 4 3 2 3 3 3 4 4 5 6 7 8 9 9 9 9 9 9 9 9 9 9 9 9 9 9 9 8 9 9 8 9 8 8 8
6 4 3 2 3 5 3 2 2 3 3 3 2 2 2 2 3 4 5 7 7 7 8 8 8 8 8 9 8 9 9 9 9 9 8 8 8 8 8 8 8 8 8
6 4 2 2 4 3 2 2 3 2 2 2 1 1 2 2 2 3 3 5 6 8 8 8 8 7 8 8 8 8 8 8 8 8 8 8 7 7 7 7 7 8 8
5 5 2 2 4 2 2 2 2 2 1 1 1 2 1 1 1 1 2 4 4 6 7 7 7 7 7 7 6 6 6 6 6 6 7 7 7 7 7 7 7 7 7
5 4 2 2 3 2 2 2 2 2 1 1 2 1 1 1 2 1 2 2 3 4 5 6 6 6 6 6 5 5 5 5 5 5 5 5 6 6 6 6 6 6 7
4 2 2 2 2 2 2 2 2 1 2 2 1 1 0 2 2 1 2 2 2 2 2 4 5 6 6 6 6 5 5 5 5 5 4 4 4 4 4 5 5 6 6
3 2 2 2 2 2 1 1 1 1 1 2 1 1 1 0 1 1 1 2 2 1 1 2 4 6 6 7 6 5 5 4 4 4 4 4 4 4 4 4 5 6 5
3 2 2 2 1 1 1 1 1 1 1 1 2 1 0 1 1 0 2 1 2 2 1 2 4 5 7 7 7 6 6 5 4 3 3 4 4 4 4 4 4 4 4
2 2 1 0 0 1 1 1 1 1 0 1 1 1 1 1 1 1 1 1 1 1 2 2 3 4 6 7 8 7 6 5 4 4 3 3 4 3 4 3 3 3 3
1 2 2 1 1 1 1 1 1 1 1 1 1 1 0 0 1 0 0 0 0 0 1 2 3 3 5 6 7 7 6 5 4 3 4 4 4 3 3 3 3 3 2
1 2 2 2 2 1 1 1 1 1 2 1 1 1 1 1 1 0 1 0 0 0 1 1 2 4 5 6 7 6 5 4 3 3 3 4 3 4 3 3 3 3 2
2 3 3 3 3 2 2 1 1 2 2 2 2 1 1 2 0 0 1 1 0 1 0 1 1 3 5 6 6 5 4 3 2 3 2 2 3 3 3 3 3 2 2
2 3 3 4 3 3 3 2 2 2 2 1 2 2 1 1 0 0 1 2 2 1 1 1 0 2 4 5 6 5 4 3 2 2 1 1 2 2 2 2 3 2 2
4 3 3 3 3 3 3 3 2 2 2 2 1 1 1 1 1 0 0 0 1 2 1 1 1 2 3 3 4 4 4 4 3 3 2 1 0 0 1 2 2 2 1
3 3 3 3 3 3 3 3 3 3 3 2 2 2 2 1 1 1 0 0 0 1 1 1 0 1 2 2 2 3 4 4 4 4 3 2 2 1 1 1 2 2 0
2 2 3 3 3 3 3 3 4 4 4 3 3 2 3 2 2 2 2 1 1 1 2 1 1 0 1 2 2 2 2 3 3 4 5 4 4 3 2 2 2 2 1
2 2 2 2 3 2 2 3 4 4 4 4 3 3 3 3 2 2 2 2 1 1 1 2 1 1 1 1 1 1 1 1 2 4 5 5 6 5 5 4 3 3 3
2 3 2 2 2 3 2 2 2 3 4 3 3 3 3 3 3 3 2 2 1 1 1 1 2 1 1 1 1 1 1 1 2 1 2 4 5 6 6 6 4 3 3
2 2 2 2 2 2 1 1 2 3 3 3 3 3 3 3 3 3 2 1 1 2 2 2 2 1 1 1 1 1 1 2 2 1 1 2 2 3 4 5 5 4 4
2 1 1 1 1 1 0 0 1 2 2 3 3 3 3 4 4 4 3 3 3 3 3 2 2 3 3 2 2 2 1 1 2 1 1 2 2 2 3 5 6 5 5
1 1 1 2 2 1 1 1 1 2 2 2 2 2 2 2 3 3 4 4 4 5 5 4 3 4 3 3 3 2 2 2 3 2 1 3 2 2 3 5 6 6 6
2 2 2 1 1 2 2 0 1 2 3 3 3 3 2 2 2 2 2 3 3 3 4 3 3 4 4 3 4 4 4 3 2 1 2 2 2 2 3 4 7 7 7
2 2 2 2 1 1 2 1 1 2 2 3 2 1 1 2 2 2 2 2 1 1 2 2 3 3 3 4 3 1 1 1 2 2 1 1 2 2 2 2 4 6 7
3 2 2 2 2 2 2 2 2 2 3 2 1 1 1 1 1 3 2 2 2 1 1 1 1 1 2 3 4 4 3 2 1 2 2 1 1 0 1 2 2 3 5
Wind_Direction
113 109 106 96 82 83 81 59 56 51 40 39 56 65 66 85 94 93 86 80 78 76 76 76 77 78 77 76 74 72 72 73 74 74 71 70 69 65 63 64 64 61 61
101 102 99 91 79 72 66 66 68 60 56 46 47 54 61 73 95 106 104 92 84 81 78 76 76 76 77 76 74 72 71 71 71 71 69 68 68 66 61 59 59 59 59
89 89 85 81 71 69 58 45 46 44 60 66 58 53 60 67 86 101 112 113 101 89 87 83 80 78 78 77 76 74 72 72 69 68 67 68 67 66 60 59 59 58 58
80 83 83 80 78 70 62 53 45 38 34 48 47 47 66 55 82 103 112 118 117 107 99 94 88 85 83 80 77 77 74 71 68 65 67 69 67 64 60 58 58 58 56
95 89 77 80 78 70 58 50 57 39 44 47 68 69 78 61 55 82 93 109 119 125 120 109 103 96 88 81 78 77 75 69 67 67 66 67 67 67 64 59 61 59 58
96 102 91 82 81 75 70 68 73 30 24 351 27 65 98 118 82 79 90 99 110 122 129 129 128 111 96 87 81 79 78 73 71 73 71 68 67 67 66 61 60 58 61
72 88 84 73 82 81 66 52 61 36 355 358 49 35 0 92 110 132 95 85 83 98 113 119 121 123 114 97 82 78 75 70 71 72 69 66 63 60 64 61 58 57 62
68 76 102 100 96 93 67 56 57 33 341 356 47 75 37 0 356 116 111 120 95 88 84 102 115 117 113 114 92 82 78 74 74 70 63 64 61 53 58 58 55 57 63
76 60 56 84 106 118 115 103 96 89 343 325 2 83 96 180 290 316 194 130 122 100 76 77 95 107 107 104 98 87 87 81 78 68 60 54 52 50 52 59 58 57 58
101 75 66 73 96 103 115 186 103 100 61 315 328 348 312 127 131 312 325 66 130 132 126 94 89 101 105 107 106 96 91 88 78 66 52 41 39 39 44 56 55 53 55
127 129 104 108 138 130 145 139 99 98 174 250 302 322 350 3 298 148 222 298 6 150 134 111 104 101 105 111 109 97 86 84 76 65 47 34 29 30 33 38 39 42 50
174 176 181 184 177 177 179 157 129 175 220 272 309 315 142 220 266 185 218 231 197 277 115 105 108 114 114 110 106 104 95 88 78 70 52 36 23 21 21 22 23 22 29
186 204 188 197 198 204 194 150 148 214 215 223 257 282 288 268 224 153 96 320 342 270 102 130 146 132 125 116 119 119 118 107 93 85 62 39 30 20 14 13 16 12 16
196 200 193 198 203 193 190 172 200 228 220 221 236 238 290 291 296 157 147 131 7 327 18 194 128 130 129 130 136 136 141 133 114 98 75 49 30 17 11 7 7 3 11
203 205 202 199 195 193 192 186 207 228 232 245 232 217 222 261 309 292 140 148 158 198 271 205 125 146 140 137 152 157 157 159 138 131 114 66 22 7 8 13 12 14 23
198 203 207 195 191 193 190 189 201 230 209 241 235 204 214 226 221 249 359 94 149 157 211 245 210 168 142 145 168 165 165 165 177 189 191 192 280 328 7 11 11 14 37
207 194 196 199 202 196 191 185 198 216 222 234 234 208 216 207 176 191 160 93 108 119 172 277 316 138 122 129 128 174 172 166 191 203 202 203 214 234 255 302 336 343 27
227 218 207 199 203 203 195 187 202 211 218 224 222 211 216 199 194 191 172 195 207 193 174 204 256 176 170 159 157 183 195 200 199 203 208 220 227 233 245 257 269 273 241
223 227 223 210 199 193 203 215 207 210 219 218 206 205 215 190 204 205 189 194 209 206 168 176 225 232 220 183 171 219 239 223 235 214 212 224 231 235 240 247 251 254 240
220 230 232 214 203 193 209 220 211 218 221 213 199 202 213 196 200 197 197 194 193 182 179 179 190 212 224 216 158 207 270 275 274 226 217 225 232 236 236 237 239 242 238
234 224 232 205 196 195 220 228 229 233 219 212 211 208 204 195 182 174 173 179 180 194 188 182 190 208 224 183 207 223 237 258 268 227 214 229 210 221 231 228 232 237 235
232 210 225 202 196 231 257 230 294 257 236 221 222 217 202 182 184 186 192 195 191 196 197 193 201 203 210 205 205 221 222 229 268 251 184 249 205 229 222 210 215 224 238
211 225 209 170 165 183 213 238 257 256 253 251 241 224 222 183 170 191 203 204 213 218 211 201 206 211 205 202 196 216 230 222 240 235 183 259 240 237 238 229 215 216 229
206 217 236 207 183 180 156 188 271 245 254 250 236 225 205 190 190 171 184 194 210 213 213 210 213 215 204 196 197 210 223 232 251 239 143 238 256 254 257 226 218 221 231
217 213 215 222 215 190 178 187 210 245 253 249 244 221 180 172 164 139 156 186 201 260 258 221 221 224 217 212 203 189 218 195 260 255 206 200 257 273 253 239 230 233 235
214 217 215 207 199 195 193 190 200 230 247 249 231 146 115 138 135 143 166 180 210 249 297 311 292 273 241 222 214 194 194 207 223 233 225 195 248 291 290 261 227 231 243
Height
1535 1536 1536 1536 1536 1537 1537 1537 1537 1538 1538 1538 1538 1538 1538 1538 1537 1537 1537 1537 1536 1536 1536 1536 1536 1536 1536 1536 1535 1535 1535 1535 1535 1535 1535 1536 1536 1536 1536 1536 1537 1537 1537
1536 1537 1537 1537 1537 1538 1538 1538 1538 1539 1539 1539 1539 1539 1539 1539 1538 1538 1538 1538 1538 1537 1537 1537 1537 1537 1537 1536 1536 1536 1536 1536 1536 1536 1536 1536 1536 1536 1537 1537 1537 1537 1537
1537 1537 1538 1538 1539 1539 1539 1539 1539 1539 1539 1539 1539 1540 1540 1540 1539 1539 1539 1539 1538 1538 1538 1538 1538 1538 1537 1537 1537 1537 1537 1537 1537 1537 1537 1536 1536 1537 1537 1537 1537 1537 1537
1537 1538 1538 1539 1539 1539 1539 1539 1539 1540 1540 1540 1540 1540 1540 1540 1540 1540 1540 1539 1539 1539 1539 1539 1539 1539 1538 1538 1538 1538 1538 1537 1537 1537 1537 1537 1537 1537 1537 1537 1537 1537 1537
1538 1538 1538 1539 1539 1539 1540 1540 1540 1540 1540 1540 1540 1540 1540 1541 1541 1541 1541 1540 1540 1540 1540 1539 1539 1539 1539 1539 1539 1538 1538 1538 1538 1538 1537 1537 1537 1537 1537 1537 1537 1537 1537
1538 1538 1539 1539 1539 1539 1540 1540 1540 1540 1540 1540 1540 1540 1541 1541 1541 1541 1541 1541 1541 1541 1540 1540 1540 1539 1539 1539 1539 1539 1538 1538 1538 1538 1538 1538 1537 1537 1537 1537 1537 1537 1537
1538 1538 1539 1539 1539 1539 1539 1539 1540 1540 1540 1540 1540 1540 1541 1541 1541 1541 1541 1541 1541 1541 1541 1540 1540 1539 1539 1539 1539 1539 1539 1538 1538 1538 1538 1538 1538 1537 1537 1537 1537 1537 1536
1537 1537 1538 1538 1538 1538 1538 1539 1539 1539 1539 1540 1540 1540 1540 1542 1541 1541 1541 1541 1541 1541 1541 1540 1540 1539 1539 1539 1539 1539 1539 1538 1538 1538 1538 1538 1537 1537 1537 1537 1537 1536 1536
1536 1536 1537 1537 1537 1538 1538 1538 1538 1538 1539 1539 1540 1540 1540 1540 1541 1541 1541 1541 1541 1541 1541 1541 1540 1539 1539 1539 1538 1538 1538 1538 1538 1538 1537 1537 1537 1537 1536 1536 1536 1536 1536
1534 1535 1535 1536 1536 1536 1537 1537 1537 1538 1538 1538 1539 1539 1540 1540 1540 1540 1541 1541 1541 1540 1540 1540 1540 1539 1539 1539 1538 1538 1538 1538 1538 1537 1537 1536 1536 1536 1536 1536 1535 1535 1535
1533 1533 1534 1534 1535 1535 1535 1535 1536 1536 1537 1537 1537 1538 1538 1539 1539 1539 1539 1540 1540 1540 1540 1540 1539 1539 1539 1538 1538 1538 1538 1537 1537 1537 1536 1536 1536 1535 1535 1535 1535 1534 1534
1531 1532 1532 1532 1533 1533 1534 1534 1534 1535 1535 1536 1536 1537 1537 1537 1537 1538 1538 1538 1538 1539 1539 1539 1538 1538 1538 1538 1538 1537 1537 1537 1536 1536 1536 1535 1535 1535 1534 1534 1534 1534 1533
1529 1530 1530 1530 1531 1531 1532 1532 1532 1533 1533 1534 1534 1535 1535 1536 1536 1536 1537 1537 1537 1537 1538 1538 1538 1537 1537 1537 1537 1537 1536 1536 1535 1535 1535 1534 1534 1533 1533 1533 1532 1532 1532
1527 1527 1528 1528 1529 1529 1530 1530 1530 1531 1531 1532 1533 1533 1533 1534 1534 1535 1535 1535 1535 1536 1536 1536 1536 1536 1536 1536 1536 1536 1535 1535 1534 1534 1534 1533 1533 1532 1532 1531 1531 1531 1530
1525 1525 1525 1526 1526 1527 1527 1528 1528 1529 1529 1530 1530 1531 1531 1531 1532 1532 1533 1534 1534 1534 1534 1535 1535 1535 1535 1535 1534 1534 1534 1534 1533 1533 1532 1532 1531 1531 1530 1530 1529 1529 1529
1522 1522 1522 1523 1523 1524 1524 1525 1526 1526 1527 1528 1528 1529 1529 1529 1530 1530 1531 1531 1532 1532 1532 1533 1533 1534 1533 1533 1533 1533 1532 1532 1532 1531 1531 1530 1530 1529 1529 1528 1528 1527 1527
1519 1519 1519 1520 1520 1521 1522 1522 1523 1524 1524 1525 1526 1526 1526 1527 1527 1528 1528 1529 1530 1530 1530 1531 1532 1532 1532 1532 1532 1531 1531 1531 1530 1530 1529 1529 1528 1528 1527 1527 1526 1526 1526
1515 1516 1516 1517 1517 1518 1519 1519 1520 1520 1521 1522 1523 1523 1524 1524 1524 1525 1526 1526 1527 1528 1529 1529 1529 1530 1530 1530 1530 1530 1529 1529 1528 1528 1527 1527 1526 1526 1526 1525 1525 1524 1524
1512 1512 1513 1513 1514 1515 1516 1516 1517 1517 1518 1519 1519 1520 1521 1521 1522 1522 1523 1524 1524 1525 1526 1527 1527 1527 1528 1528 1528 1527 1527 1527 1526 1526 1525 1525 1525 1524 1524 1523 1523 1522 1522
1508 1509 1510 1510 1510 1511 1512 1513 1513 1514 1515 1516 1516 1517 1517 1518 1519 1519 1520 1521 1521 1522 1523 1524 1524 1524 1525 1525 1525 1525 1524 1524 1524 1524 1523 1523 1522 1522 1522 1521 1521 1520 1520
1505 1505 1506 1506 1507 1507 1508 1509 1510 1510 1511 1512 1513 1513 1514 1514 1515 1516 1517 1517 1518 1519 1520 1521 1521 1521 1522 1522 1522 1522 1522 1522 1521 1521 1520 1520 1520 1519 1519 1519 1518 1518 1518
1501 1502 1502 1502 1503 1504 1505 1505 1506 1507 1507 1508 1509 1510 1510 1511 1512 1512 1513 1514 1515 1516 1517 1517 1517 1518 1518 1519 1519 1519 1519 1519 1518 1519 1518 1517 1517 1516 1516 1516 1516 1515 1515
1498 1498 1498 1499 1499 1500 1501 1502 1502 1503 1504 1504 1505 1506 1507 1507 1508 1509 1510 1511 1512 1513 1514 1514 1514 1514 1514 1515 1516 1516 1516 1516 1515 1515 1515 1514 1514 1513 1513 1513 1513 1513 1512
1494 1494 1495 1496 1496 1497 1497 1498 1499 1499 1500 1501 1502 1503 1503 1504 1504 1505 1506 1507 1507 1508 1510 1510 1511 1511 1511 1512 1512 1513 1513 1513 1513 1513 1512 1511 1511 1510 1510 1510 1510 1510 1509
1491 1491 1492 1492 1493 1493 1494 1494 1495 1495 1496 1497 1498 1498 1499 1500 1501 1502 1502 1503 1504 1504 1506 1507 1507 1507 1508 1508 1509 1509 1509 1509 1509 1509 1509 1509 1508 1507 1507 1507 1507 1506 1506
1487 1488 1488 1489 1489 1490 1490 1491 1491 1491 1492 1493 1493 1494 1495 1496 1497 1498 1498 1499 1500 1500 1502 1502 1503 1503 1504 1504 1505 1505 1505 1506 1505 1505 1505 1505 1505 1504 1503 1503 1503 1503 1502